User: anonymous   Login
Location: Smithers
(54.7670°N, 127.1670°W)
Time: 14:56:41
(UTC-07:00)
Language:

ERBS - Orbit

View from above orbital plane
View from above orbital plane
View from above satellite
View from above satellite

Ground track
Ground track

The orbit data is extracted from the following two-line orbital elements,

1 15354U 84108B   15188.52135224  .00008761  00000-0  25406-3 0  9998
2 15354 057.0120 303.6298 0012531 174.8887 185.2295 15.36296702688680
Epoch (UTC): 07 July 2015 12:30:44
Eccentricity: 0.0012531
inclination: 57.0120°
perigee height: 448 km
apogee height: 465 km
right ascension of ascending node: 303.6298°
argument of perigee: 174.8887°
revolutions per day: 15.36296702
mean anomaly at epoch: 185.2295°
orbit number at epoch: 68868

The dashed part of the orbit path shows where the satellite is in the earth's shadow,  

DLR